Back to catalog

THORAD DELTA 1 DEB

AliveSSO
NORAD 42591·DEBRIS·🇺🇸 United States

Launched Nov 15, 1974 from Vandenberg Space Force Base

Loading…

Next Passes (next 24 hours)

TLE

FreshSource: Space-Track

Epoch: Sep 14, 2026, 00:02 UTC

1 42591U 74089BV  26257.00178209 -.00000010  00000-0  25546-3 0  9995
2 42591 101.8345   2.9226 0116295  76.2020 285.1952 12.34049521825252

Track THORAD DELTA 1 DEB in real time with AllMySat

Download on the App Store